Regional Weather Roundup
Issued by NWS Upton, NY

Current Version | Previous Version | Graphics & Text | Print | Product List | Glossary Off
Versions: 1 2 3 4 5 6 7 8 9 10 11 12 13 14 15 16 17 18 19 20 21 22 23 24 25 26 27 28

000
ASUS41 KOKX 230709
RWROKX

Regional Weather Roundup
National Weather Service New York NY
200 AM EST TUE JAN 23 2018

Note: "FAIR" indicates few or no clouds below 12,000 feet with no
significant weather and/or obstructions to visibility.

NYZ071-072-176-178-NJZ106-104-230800-
New York City Metro Area

CITY           SKY/WX    TMP DP  RH WIND       PRES   REMARKS
Central Park   CLOUDY    38  37  97 CALM      30.01F FOG
Bronx Bot Gard NOT AVBL
Bronx Lehman C   N/A     37  36  93 E10         N/A  WCI  30
LaGuardia Arpt FOG       36  35  96 NE9       29.99F VSB 1/8 WCI  29
Queens College   N/A     37  37 100 NE3         N/A
Kennedy Intl   FOG       41  41 100 NE6       30.00F VSB 1/4
Breezy Point     N/A     39 N/A N/A NE5         N/A
Brooklyn Coll    N/A     41  39  93 NE5         N/A
Staten Island    N/A     39  39 100 NE2         N/A
Newark/Liberty CLOUDY    40  40 100 NE5       29.99F FOG
Teterboro      CLOUDY    40  39  97 E3        29.99F FOG
$$

NYZ177-179-078>081-230800-
Long Island New York

CITY           SKY/WX    TMP DP  RH WIND       PRES   REMARKS
Jones Beach      N/A     43 N/A N/A E5          N/A
Wantagh          N/A     43  43 100 NE3         N/A
Matinecock Pt    N/A     36 N/A N/A E14         N/A  WCI  27
Farmingdale    FOG       40  40 100 NE5       29.99F VSB 1/8
MacArthur/ISP  FOG       44  43  96 NE3       30.00F VSB 1/4
Shirley        FOG       42  42 100 CALM      30.01F VSB 1/2
Mt Sinai Harb    N/A    N/A N/A N/A CALM        N/A
Westhampton    FOG       47  45  93 SE8       30.03F VSB 1/2
East Hampton   CLOUDY    47  46  99 SE5       30.02F
Southold         N/A     39  39 100 E6          N/A  WCI  35
Montauk          N/A     43  42  97 CALM      30.06F
$$

NYZ052-065-067-230800-
Hudson Valley

CITY           SKY/WX    TMP DP  RH WIND       PRES   REMARKS
White Plains   FOG       39  39 100 SE8       29.98F VSB 1/4 WCI  33
Larchmont Harb   N/A     34 N/A N/A NE15        N/A  WCI  24
Croton On Huds   N/A     37 N/A N/A MISG        N/A
Somers           N/A     39  37  93 E6          N/A  WCI  35
Brewster         N/A     37  37 100 E5          N/A  WCI  34
Newburgh       CLOUDY    39  39 100 SE12      29.98F FOG     WCI  32
Montgomery     FOG       37  36  96 N7        29.96F VSB 1/4 WCI  32
Otisville        N/A     36  36 100 NE3         N/A
Warwick          N/A     39  39 100 NE2         N/A
Suffern          N/A     37  37 100 NE1         N/A
Poughkeepsie   CLOUDY    40  37  89 CALM      29.98F
Albany         CLOUDY    38  34  85 SE8       29.94F WCI  32
$$

NJZ001-105-106-008-010-013-015-019>022-104-230800-
New Jersey

CITY           SKY/WX    TMP DP  RH WIND       PRES   REMARKS
Newark/Liberty CLOUDY    40  40 100 NE5       29.99F FOG
Teterboro      CLOUDY    40  39  97 E3        29.99F FOG
Caldwell       CLOUDY    38  38 100 E7        29.98F FOG     WCI  33
Somerville     CLOUDY    36  36 100 CALM      29.95F FOG
Linden         CLOUDY    40  38  92 CALM      29.99S FOG
Perth Amboy      N/A     39 N/A N/A E2          N/A
Sussex         NOT AVBL
Andover          N/A     39  38  96 VRB3      29.94F
Trenton        FAIR      39  37  92 NE5       29.94F FOG
Millville      FAIR      48  44  86 S3        29.94F
Atlantic City  MOCLDY    50  50 100 S12G21    29.95F FOG
Wrightstown    FAIR      48  45  89 S7        29.93F
Toms River     FAIR      49  48  97 S9        29.97F
Belmar         FOG       45  44  97 SE5       29.98F VSB 1/2
$$

PAZ047>061-062-071-230800-
Eastern Pennsylvania

CITY           SKY/WX    TMP DP  RH WIND       PRES   REMARKS
Philadelphia   FAIR      51  42  71 S10       29.93F
Allentown      MOCLDY    38  34  85 NE7       29.92F FOG     WCI  33
Scranton       FAIR      43  38  82 CALM      29.86S
$$

CTZ002-004>006-009-010-012-RIZ004-006-007-MAZ004-011-015-230800-
Southern New England

 In CT

CITY           SKY/WX    TMP DP  RH WIND       PRES   REMARKS
Bradley Intl   CLOUDY    34  34 100 N7        30.06F FOG     WCI  28
Hartford       FOG       35  35 100 N7        30.06F VSB 3/4 WCI  29
Danbury        FOG       39  38  96 E6        30.00F VSB 1/2 WCI  35
Wtrbury/Oxford LGT RAIN  36  35  96 E9        30.01F VSB 1/4 WCI  29
Norwalk Harbor   N/A     37 N/A N/A NE16        N/A  WCI  28
Bridgeport     FOG       41  40  96 NE8       30.02F VSB 1/4
Meriden        FOG       35  35 100 N5        30.05F VSB 3/4 WCI  31
New Haven      FOG       40  39  97 N5        30.03F VSB 1/4
Chester        FOG       41  39  93 CALM      30.03F VSB<1/4
Groton         FOG       42  41  96 NE5       30.04F VSB 1/2
Willimantic    FOG       38  37  97 CALM      30.06F VSB 1/4

 In RI

CITY           SKY/WX    TMP DP  RH WIND       PRES   REMARKS
Providence     FOG       38  38 100 N5        30.09F VSB 1/4 WCI  34
Block Island   CLOUDY    47  47 100 S10       30.06F
Westerly       FOG       42  42 100 NE3       30.06F VSB 1/2

In MA

CITY           SKY/WX    TMP DP  RH WIND       PRES   REMARKS
Boston         DRIZZLE   39  39 100 NE7       30.11F FOG     WCI  34
Worcester      FOG       29  28  96 NE8       30.05F VSB 1/4 WCI  21
Westfield      CLOUDY    33  33 100 N8        30.06F FOG     WCI  26
Provincetown   CLOUDY    42  40  92 S9        30.11F
Nantucket      CLOUDY    43  43 100 SE9       30.10F FOG
$$

ANZ330-335-338-340-345-350-353-355-230800-
Coastal Marine Observations


STATION/POSITION TIME  SKY/WX   TEMP    WIND        PRES    VSBY  WAVE
                                AIR SEA DIR/SP/G                  HT/PER
                 (UTC)          (F)     (DEG/KT/KT) (MB)    (MI)  (FT/S)
NY Harb Entrance 0550            40 39   60/  6/  8 1016.3          2/ 3
20 S Fire Island 0550            46 42  160/  8/ 10 1017.0          2/ 4
15 E Barnegat Li 0630               43                N/A           2/10
Hudson Canyon    0550            53 49  160/  8/ 10 1017.3          2/ 4
Kings Point      0648            36 34   60/  3/  4 1016.7
Execution Rocks  NOT AVBL
Western LI Sound NOT AVBL
Central LI Sound NOT AVBL
Robbins Reef     0648            38      70/  8/ 10 1016.2
$$


>>>>>>>>>>>>>>>>>>>>>>>>>>>> KEY <<<<<<<<<<<<<<<<<<<<<<<<<<<
>                                                          <
>     SKY/WX - Sky Condition/Present Weather               <
>     TMP    - Temperature in Fahrenheit                   <
>     DP     - Dew Point in Fahrenheit                     <
>     RH     - Relative Humidity in Percent                <
>     WIND   - Direction (from) and Speed in MPH           <
>     PRES   - Mean Sea Level Pressure (inches of Hg)      <
>     WCI    - Wind Chill Index                            <
>     VSB    - Visibility in Miles                         <
>     HX     - Heat Index                                  <
>     TC     - Temperature in Celsius                      <
>     VRB    - Varibale Wind Direction                     <
>                                                          <
>>>>>>>>>>>>>>>>>>>>>>>>>>>> KEY <<<<<<<<<<<<<<<<<<<<<<<<<<<




USA.gov is the U.S. government's official web portal to all federal, state and local government web resources and services.